Snowfall_Accumulation
0.0 0.0 0.0 0.0 0.0 0.0 0.0 0.0 0.0 0.0 0.0 0.0 0.0 0.0 0.0 0.0 0.0 0.0 0.0 0.0 0.0 0.0 0.0 0.0 0.0 0.0 0.0 0.0 0.0 0.0 0.0 0.0 0.0 0.0 0.0 0.0 0.0 0.0 0.0 0.0 0.0 0.0 0.0 0.0
0.0 0.0 0.0 0.0 0.0 0.0 0.0 0.0 0.0 0.0 0.0 0.0 0.0 0.0 0.0 0.0 0.0 0.0 0.0 0.0 0.0 0.0 0.0 0.0 0.0 0.0 0.0 0.0 0.0 0.0 0.0 0.0 0.0 0.0 0.0 0.0 0.0 0.0 0.0 0.0 0.0 0.0 0.0 0.0
0.0 0.0 0.0 0.0 0.0 0.0 0.0 0.0 0.0 0.0 0.0 0.0 0.0 0.0 0.0 0.0 0.0 0.0 0.0 0.0 0.0 0.0 0.0 0.0 0.0 0.0 0.0 0.0 0.0 0.0 0.0 0.0 0.0 0.0 0.0 0.0 0.0 0.0 0.0 0.0 0.0 0.0 0.0 0.0
0.0 0.0 0.0 0.0 0.0 0.0 0.0 0.0 0.0 0.0 0.0 0.0 0.0 0.1 0.0 0.0 0.0 0.0 0.0 0.0 0.0 0.0 0.0 0.0 0.0 0.0 0.0 0.0 0.0 0.0 0.0 0.0 0.0 0.0 0.0 0.0 0.0 0.0 0.0 0.0 0.0 0.0 0.0 0.0
0.0 0.0 0.0 0.0 0.0 0.0 0.0 0.0 0.0 0.0 0.0 0.0 0.0 0.0 0.0 0.0 0.0 0.0 0.0 0.0 0.0 0.0 0.0 0.0 0.0 0.0 0.0 0.0 0.0 0.0 0.0 0.0 0.0 0.0 0.0 0.0 0.0 0.0 0.0 0.0 0.0 0.0 0.0 0.0
0.0 0.0 0.0 0.0 0.0 0.0 0.0 0.0 0.0 0.0 0.0 0.6 0.0 0.0 0.0 0.0 0.0 0.0 0.0 0.0 0.0 0.0 0.0 0.0 0.0 0.0 0.0 0.0 0.0 0.0 0.0 0.0 0.0 0.0 0.0 0.0 0.0 0.0 0.0 0.0 0.0 0.0 0.0 0.0
0.0 0.0 0.0 0.0 0.0 0.0 0.0 0.0 0.7 1.6 3.5 2.2 0.0 0.3 0.0 0.0 0.0 0.0 0.0 0.0 0.0 0.0 0.0 0.0 0.0 0.0 0.0 0.0 0.0 0.0 0.0 0.0 0.0 0.0 0.0 0.0 0.0 0.0 0.0 0.0 0.0 0.0 0.0 0.0
0.0 0.0 0.0 0.0 0.0 0.0 0.0 0.0 1.6 4.8 3.9 2.2 0.7 0.9 0.1 0.0 0.0 0.0 0.0 0.0 0.0 0.0 0.0 0.0 0.0 0.0 0.0 0.0 0.0 0.0 0.0 0.0 0.0 0.0 0.0 0.0 0.0 0.0 0.0 0.0 0.0 0.0 0.0 0.0
0.0 0.0 0.0 0.0 0.0 0.0 0.0 0.0 0.0 1.7 6.2 5.9 0.0 0.0 0.0 0.0 0.0 0.0 0.0 0.0 0.0 0.0 0.0 0.0 0.0 0.0 0.0 0.0 0.0 0.0 0.0 0.0 0.0 0.0 0.0 0.0 0.0 0.0 0.0 0.0 0.0 0.0 0.0 0.0
0.0 0.1 0.0 0.0 0.0 0.0 0.0 0.0 0.8 0.7 7.4 5.4 0.0 0.0 0.0 0.0 0.0 0.0 0.0 0.0 0.0 0.0 0.0 0.0 0.0 0.0 0.0 0.0 0.0 0.0 0.0 0.0 0.0 0.0 0.0 0.0 0.0 0.0 0.0 0.0 0.0 0.0 0.0 0.0
0.0 0.0 0.0 0.0 0.0 0.0 0.0 0.0 0.0 0.0 1.0 5.0 4.2 0.8 0.0 0.0 0.0 0.0 0.0 0.0 0.0 0.0 0.0 0.0 0.0 0.0 0.0 0.0 0.0 0.0 0.0 0.0 0.0 0.0 0.0 0.0 0.0 0.0 0.0 0.0 0.0 0.0 0.0 0.0
0.0 0.0 1.2 0.0 0.0 0.0 0.0 0.0 0.0 1.9 1.7 1.2 3.8 1.4 0.0 0.0 0.0 0.0 0.0 0.0 0.0 0.0 0.0 0.0 0.0 0.0 0.0 0.0 0.0 0.0 0.0 0.0 0.0 0.0 0.0 0.0 0.0 0.0 0.0 0.0 0.0 0.0 0.0 0.0
0.0 0.6 3.0 0.6 0.0 0.0 0.0 0.0 0.0 0.0 1.6 3.1 8.2 2.4 0.0 0.0 0.0 0.0 0.0 0.0 0.0 0.0 0.0 0.0 0.0 0.0 0.0 0.0 0.0 0.0 0.0 0.0 0.0 0.0 0.0 0.0 0.0 0.0 0.0 0.0 0.0 0.0 0.0 0.0
nan 0.0 0.0 0.0 0.0 0.0 0.1 0.0 0.0 0.0 4.3 2.4 2.2 0.2 0.0 0.0 0.0 0.0 0.0 0.0 0.0 0.0 0.0 0.0 0.0 0.0 0.0 0.0 0.0 0.0 0.0 0.0 0.0 0.0 0.0 0.0 0.0 0.0 0.0 0.0 0.1 0.0 0.0 0.0
0.1 0.6 0.0 0.0 0.0 0.0 0.0 0.0 0.0 0.0 0.0 0.2 0.3 0.0 0.0 0.1 0.2 0.2 0.0 0.0 0.0 0.0 0.0 0.0 0.0 0.0 0.0 0.0 0.0 0.0 0.0 0.0 0.0 0.0 0.0 0.0 0.0 0.0 0.3 0.3 0.3 0.3 0.3 0.2
0.1 2.3 0.1 2.3 0.0 0.0 0.0 0.0 0.0 0.0 0.0 0.0 0.0 0.0 0.0 0.0 0.0 0.0 0.0 0.0 0.0 0.0 0.0 0.0 0.0 0.0 0.0 0.0 0.0 0.0 0.0 0.0 0.0 0.0 0.0 0.0 0.6 0.9 0.7 0.9 1.3 0.5 0.4 0.4
0.6 0.7 6.8 6.9 0.2 0.7 3.1 0.7 0.0 0.0 0.0 0.0 1.1 0.0 0.0 0.0 0.0 0.0 0.0 0.0 0.5 0.0 0.0 0.0 0.0 0.0 0.0 0.0 0.0 0.0 0.0 0.4 0.8 0.9 1.6 1.7 1.7 2.2 1.4 1.0 1.2 0.9 0.9 0.9
0.7 4.1 10.2 13.9 10.6 17.0 0.2 0.0 0.0 0.0 0.0 0.0 0.0 0.0 0.0 0.0 0.0 0.0 0.0 0.5 0.0 0.0 0.0 0.0 0.0 0.0 0.0 0.0 0.0 0.0 0.7 0.9 1.2 2.6 3.4 2.3 1.9 3.2 0.8 0.8 0.7 1.0 0.7 0.9
0.2 0.7 8.5 23.3 15.8 0.4 0.0 0.0 0.0 0.0 0.0 0.0 0.0 0.0 0.0 0.0 0.0 0.0 0.0 0.0 0.0 0.0 0.0 0.0 0.0 0.0 0.0 0.0 0.0 0.9 0.9 0.9 1.0 1.1 1.7 1.8 2.7 3.7 1.4 3.6 0.7 0.7 2.2 1.3
1.0 0.5 2.1 19.7 18.3 13.3 0.0 0.0 0.0 0.0 0.2 0.0 0.0 0.0 0.0 0.0 3.8 0.6 0.0 0.0 0.0 0.0 0.0 0.0 0.0 0.0 0.0 0.8 0.9 0.9 0.9 1.0 1.0 1.2 1.1 1.3 2.4 4.8 3.8 2.0 3.1 3.5 3.3 3.2
6.1 11.1 11.9 11.8 18.8 4.2 0.0 0.0 0.0 4.4 0.0 0.0 0.0 0.0 0.0 1.2 0.4 0.0 0.0 0.0 0.0 0.0 0.0 0.0 0.0 0.3 0.9 1.0 1.2 0.9 0.9 1.1 1.2 1.8 1.5 1.6 2.2 5.0 3.3 3.7 3.0 4.2 4.3 2.3
1.9 9.6 20.4 14.5 18.3 16.6 0.0 0.0 0.0 0.0 0.0 0.0 0.2 0.7 0.8 0.0 0.0 0.0 0.0 0.0 0.0 0.0 0.0 0.3 1.2 0.8 0.9 1.4 1.7 1.1 0.9 1.0 1.4 1.7 1.8 3.2 5.2 5.1 4.9 8.1 4.7 6.2 5.6 5.3
5.1 0.5 3.8 1.0 1.8 0.0 0.0 0.0 0.0 0.0 0.0 0.7 0.9 0.9 0.0 0.0 0.0 0.0 0.0 0.0 0.0 1.2 1.3 1.5 2.1 1.6 1.1 1.4 2.3 3.4 1.0 1.2 1.7 5.3 7.4 7.5 6.5 6.6 6.7 9.7 5.6 7.2 5.9 6.9
0.1 0.0 0.5 0.5 0.0 0.0 0.0 0.0 0.0 0.0 0.5 0.7 0.8 0.9 0.0 0.0 0.8 1.4 2.0 1.5 0.8 1.1 0.9 1.7 2.2 1.8 1.9 2.7 3.2 3.9 2.4 2.1 11.3 10.7 5.3 4.1 5.3 3.8 4.7 6.8 8.0 10.2 7.3 5.6
0.0 0.0 0.1 1.5 0.0 0.0 0.0 0.0 0.0 0.1 0.8 1.2 1.2 1.0 0.1 0.9 2.7 1.8 3.1 2.8 1.1 0.8 1.3 1.6 2.0 1.9 2.5 2.1 2.3 3.8 3.7 4.1 6.2 6.6 3.4 4.8 7.1 7.9 4.2 3.7 8.2 6.3 3.5 7.6
0.0 0.0 0.1 2.5 0.0 0.0 0.0 0.0 0.0 0.1 0.6 0.8 1.1 1.7 1.4 1.4 1.8 1.7 2.6 1.6 2.0 1.8 1.6 1.8 1.3 1.3 1.5 1.8 2.2 4.1 6.1 6.2 6.4 3.5 5.4 5.8 5.8 4.9 4.1 4.0 3.5 nan nan nan
Water_Equivalent
0.00 0.00 0.00 0.00 0.00 0.00 0.00 0.00 0.00 0.00 0.00 0.00 0.00 0.00 0.00 0.00 0.00 0.00 0.00 0.00 0.00 0.00 0.00 0.00 0.00 0.00 0.00 0.00 0.00 0.00 0.00 0.00 0.00 0.00 0.00 0.00 0.00 0.00 0.00 0.00 0.00 0.00 0.00 0.00
0.00 0.00 0.00 0.00 0.00 0.00 0.00 0.00 0.00 0.00 0.00 0.00 0.00 0.00 0.00 0.00 0.00 0.00 0.00 0.00 0.00 0.00 0.00 0.00 0.00 0.00 0.00 0.00 0.00 0.00 0.00 0.00 0.00 0.00 0.00 0.00 0.00 0.00 0.00 0.00 0.00 0.00 0.00 0.00
0.00 0.00 0.00 0.00 0.00 0.00 0.00 0.00 0.00 0.00 0.00 0.00 0.00 0.00 0.00 0.00 0.00 0.00 0.00 0.00 0.00 0.00 0.00 0.00 0.00 0.00 0.00 0.00 0.00 0.00 0.00 0.00 0.00 0.00 0.00 0.00 0.00 0.00 0.00 0.00 0.00 0.00 0.00 0.00
0.00 0.00 0.00 0.00 0.00 0.00 0.00 0.00 0.00 0.00 0.00 0.00 0.00 0.01 0.00 0.00 0.00 0.00 0.00 0.00 0.00 0.00 0.00 0.00 0.00 0.00 0.00 0.00 0.00 0.00 0.00 0.00 0.00 0.00 0.00 0.00 0.00 0.00 0.00 0.00 0.00 0.00 0.00 0.00
0.00 0.00 0.00 0.00 0.00 0.00 0.00 0.00 0.00 0.00 0.00 0.00 0.00 0.00 0.00 0.00 0.00 0.00 0.00 0.00 0.00 0.00 0.00 0.00 0.00 0.00 0.00 0.00 0.00 0.00 0.00 0.00 0.00 0.00 0.00 0.00 0.00 0.00 0.00 0.00 0.00 0.00 0.00 0.00
0.00 0.00 0.00 0.00 0.00 0.00 0.00 0.00 0.00 0.00 0.00 0.08 0.00 0.00 0.00 0.00 0.00 0.00 0.00 0.00 0.00 0.00 0.00 0.00 0.00 0.00 0.00 0.00 0.00 0.00 0.00 0.00 0.00 0.00 0.00 0.00 0.00 0.00 0.00 0.00 0.00 0.00 0.00 0.00
0.00 0.00 0.00 0.00 0.00 0.00 0.00 0.00 0.09 0.20 0.43 0.29 0.00 0.04 0.00 0.00 0.00 0.00 0.00 0.00 0.00 0.00 0.00 0.00 0.00 0.00 0.00 0.00 0.00 0.00 0.00 0.00 0.00 0.00 0.00 0.00 0.00 0.00 0.00 0.00 0.00 0.00 0.00 0.00
0.00 0.00 0.00 0.00 0.00 0.00 0.00 0.00 0.20 0.48 0.43 0.27 0.09 0.10 0.01 0.00 0.00 0.00 0.00 0.00 0.00 0.00 0.00 0.00 0.00 0.00 0.00 0.00 0.00 0.00 0.00 0.00 0.00 0.00 0.00 0.00 0.00 0.00 0.00 0.00 0.00 0.00 0.00 0.00
0.00 0.01 0.00 0.00 0.00 0.00 0.00 0.00 0.00 0.20 0.62 0.59 0.00 0.00 0.00 0.00 0.00 0.00 0.00 0.00 0.00 0.00 0.00 0.00 0.00 0.00 0.00 0.00 0.00 0.00 0.00 0.00 0.00 0.00 0.00 0.00 0.00 0.00 0.00 0.00 0.00 0.00 0.00 0.00
0.00 0.02 0.00 0.00 0.00 0.00 0.00 0.00 0.09 0.09 0.74 0.54 0.00 0.00 0.00 0.00 0.00 0.00 0.00 0.00 0.00 0.00 0.00 0.00 0.00 0.00 0.00 0.00 0.00 0.00 0.00 0.00 0.00 0.00 0.00 0.00 0.00 0.00 0.00 0.00 0.00 0.00 0.00 0.00
0.00 0.00 0.00 0.00 0.00 0.00 0.00 0.00 0.00 0.00 0.12 0.50 0.42 0.09 0.00 0.00 0.00 0.00 0.00 0.00 0.00 0.00 0.00 0.00 0.00 0.00 0.00 0.00 0.00 0.00 0.00 0.00 0.00 0.00 0.00 0.00 0.00 0.00 0.00 0.00 0.00 0.00 0.00 0.00
0.00 0.00 0.15 0.00 0.00 0.00 0.00 0.00 0.00 0.22 0.18 0.14 0.38 0.14 0.00 0.00 0.00 0.00 0.00 0.00 0.00 0.00 0.00 0.00 0.00 0.00 0.00 0.00 0.00 0.00 0.00 0.00 0.00 0.00 0.00 0.00 0.00 0.00 0.00 0.00 0.00 0.00 0.00 0.00
0.00 0.07 0.36 0.07 0.00 0.00 0.00 0.00 0.00 0.00 0.20 0.32 0.83 0.25 0.00 0.00 0.00 0.00 0.00 0.00 0.00 0.00 0.00 0.00 0.00 0.00 0.00 0.00 0.00 0.00 0.00 0.00 0.00 0.00 0.00 0.00 0.00 0.00 0.00 0.00 0.00 0.00 0.00 0.00
nan 0.01 0.00 0.00 0.00 0.00 0.01 0.00 0.00 0.00 0.45 0.24 0.23 0.02 0.00 0.00 0.00 0.00 0.00 0.00 0.00 0.00 0.00 0.00 0.00 0.00 0.00 0.00 0.00 0.00 0.00 0.00 0.00 0.00 0.00 0.00 0.00 0.00 0.00 0.00 0.02 0.00 0.00 0.00
0.01 0.07 0.00 0.00 0.00 0.00 0.00 0.00 0.00 0.01 0.00 0.02 0.04 0.00 0.00 0.02 0.03 0.04 0.00 0.00 0.00 0.00 0.00 0.00 0.00 0.00 0.00 0.00 0.00 0.00 0.00 0.00 0.00 0.00 0.00 0.00 0.00 0.00 0.04 0.04 0.04 0.04 0.04 0.03
0.02 0.27 0.01 0.23 0.00 0.00 0.00 0.00 0.00 0.00 0.01 0.00 0.00 0.00 0.00 0.00 0.00 0.00 0.00 0.00 0.00 0.00 0.00 0.00 0.00 0.00 0.00 0.00 0.00 0.00 0.00 0.00 0.00 0.00 0.00 0.00 0.06 0.09 0.07 0.10 0.15 0.06 0.05 0.05
0.08 0.08 0.68 0.69 0.02 0.07 0.31 0.07 0.00 0.00 0.00 0.00 0.11 0.00 0.00 0.00 0.00 0.00 0.00 0.00 0.06 0.00 0.00 0.00 0.00 0.00 0.00 0.00 0.00 0.00 0.00 0.04 0.08 0.08 0.16 0.17 0.18 0.23 0.15 0.11 0.14 0.11 0.11 0.11
0.08 0.43 1.08 1.39 1.07 1.50 0.03 0.00 0.00 0.00 0.00 0.00 0.00 0.00 0.00 0.00 0.00 0.00 0.00 0.06 0.00 0.00 0.00 0.00 0.00 0.00 0.00 0.00 0.00 0.00 0.07 0.09 0.12 0.26 0.34 0.23 0.19 0.32 0.09 0.09 0.08 0.11 0.08 0.10
0.04 0.09 0.87 2.30 1.58 0.05 0.00 0.00 0.00 0.00 0.00 0.00 0.00 0.00 0.00 0.00 0.00 0.00 0.00 0.00 0.00 0.00 0.00 0.00 0.00 0.00 0.00 0.00 0.00 0.09 0.09 0.08 0.10 0.10 0.16 0.18 0.26 0.35 0.14 0.37 0.08 0.07 0.23 0.15
0.14 0.08 0.30 1.94 1.74 1.27 0.01 0.00 0.00 0.00 0.02 0.00 0.00 0.00 0.00 0.00 0.38 0.08 0.00 0.00 0.00 0.00 0.00 0.00 0.00 0.00 0.00 0.08 0.08 0.09 0.09 0.09 0.09 0.10 0.10 0.12 0.22 0.45 0.35 0.20 0.31 0.38 0.37 0.36
0.61 1.11 1.16 1.23 1.85 0.44 0.00 0.00 0.00 0.44 0.00 0.00 0.00 0.00 0.00 0.12 0.05 0.00 0.00 0.00 0.00 0.00 0.00 0.00 0.00 0.03 0.08 0.09 0.11 0.09 0.08 0.10 0.11 0.15 0.12 0.14 0.20 0.46 0.30 0.36 0.31 0.43 0.47 0.26
0.17 0.91 2.04 1.44 1.73 1.61 0.01 0.00 0.00 0.00 0.00 0.00 0.02 0.08 0.08 0.00 0.00 0.00 0.00 0.00 0.00 0.00 0.00 0.03 0.12 0.08 0.09 0.13 0.14 0.09 0.09 0.09 0.12 0.14 0.15 0.29 0.49 0.47 0.48 0.84 0.52 0.71 0.63 0.62
0.50 0.06 0.39 0.11 0.19 0.00 0.00 0.00 0.00 0.00 0.00 0.09 0.11 0.10 0.00 0.00 0.00 0.00 0.00 0.00 0.00 0.12 0.13 0.15 0.20 0.16 0.11 0.14 0.20 0.27 0.09 0.10 0.14 0.51 0.72 0.72 0.64 0.64 0.66 1.01 0.60 0.85 0.72 0.87
0.01 0.00 0.07 0.05 0.00 0.00 0.00 0.00 0.00 0.00 0.07 0.08 0.09 0.09 0.01 0.00 0.08 0.14 0.20 0.15 0.08 0.11 0.09 0.17 0.22 0.18 0.17 0.25 0.29 0.34 0.20 0.18 1.12 1.04 0.51 0.39 0.51 0.40 0.50 0.73 0.89 1.22 0.91 0.72
0.00 0.00 0.01 0.17 0.00 0.00 0.00 0.00 0.00 0.02 0.09 0.12 0.12 0.10 0.01 0.09 0.27 0.18 0.31 0.28 0.11 0.08 0.13 0.16 0.20 0.18 0.23 0.18 0.20 0.33 0.30 0.36 0.60 0.64 0.32 0.47 0.71 0.81 0.45 0.39 0.70 0.57 0.36 0.80
0.00 0.00 0.01 0.26 0.00 0.00 0.00 0.00 0.01 0.02 0.06 0.09 0.12 0.17 0.14 0.14 0.18 0.17 0.27 0.16 0.20 0.18 0.16 0.18 0.13 0.12 0.12 0.15 0.18 0.33 0.53 0.54 0.57 0.32 0.53 0.55 0.55 0.49 0.42 0.41 0.37 nan nan nan
SL_Ratio
nan nan nan nan nan nan nan nan nan nan nan nan nan nan nan nan nan nan nan nan nan nan nan nan nan nan nan nan nan nan nan nan nan nan nan nan nan nan nan nan nan nan nan nan
nan nan nan nan nan nan nan nan nan nan nan nan nan nan nan nan nan nan nan nan nan nan nan nan nan nan nan nan nan nan nan nan nan nan nan nan nan nan nan nan nan nan nan nan
nan nan nan nan nan nan nan nan nan nan nan nan nan nan nan nan nan nan nan nan nan nan nan nan nan nan nan nan nan nan nan nan nan nan nan nan nan nan nan nan nan nan nan nan
nan nan nan nan nan nan nan nan nan nan nan nan nan 7.9 nan nan nan nan nan nan nan nan nan nan nan nan nan nan nan nan nan nan nan nan nan nan nan nan nan nan nan nan nan nan
nan nan nan nan nan nan nan nan nan nan nan nan nan nan nan nan nan nan nan nan nan nan nan nan nan nan nan nan nan nan nan nan nan nan nan nan nan nan nan nan nan nan nan nan
nan nan nan nan nan nan nan nan nan nan nan 7.9 nan nan nan nan nan nan nan nan nan nan nan nan nan nan nan nan nan nan nan nan nan nan nan nan nan nan nan nan nan nan nan nan
nan nan nan nan nan nan nan nan 7.7 8.0 8.1 7.8 nan 7.6 nan nan nan nan nan nan nan nan nan nan nan nan nan nan nan nan nan nan nan nan nan nan nan nan nan nan nan nan nan nan
nan nan nan nan nan nan nan nan 7.7 9.9 9.0 8.2 7.9 8.5 7.2 nan nan nan nan nan nan nan nan nan nan nan nan nan nan nan nan nan nan nan nan nan nan nan nan nan nan nan nan nan
7.2 7.4 nan nan nan nan nan nan nan 8.2 9.9 9.9 nan nan nan nan nan nan nan nan nan nan nan nan nan nan nan nan nan nan nan nan nan nan nan nan nan nan nan nan nan nan nan nan
nan 7.3 nan nan nan nan nan nan 8.2 8.1 9.9 9.9 nan nan nan nan nan nan nan nan nan nan nan nan nan nan nan nan nan nan nan nan nan nan nan nan nan nan nan nan nan nan nan nan
nan nan 5.0 5.0 nan nan nan nan nan nan 8.2 9.9 10.0 8.6 nan nan nan nan nan nan nan nan nan nan nan nan nan nan nan nan nan nan nan nan nan nan nan nan nan nan nan nan nan nan
nan nan 7.8 7.5 nan nan nan nan nan 8.9 9.5 8.5 9.9 9.9 nan nan nan nan nan nan nan nan nan nan nan nan nan nan nan nan nan nan nan nan nan nan nan nan nan nan nan nan nan nan
nan 7.6 8.4 8.2 10.0 nan 6.8 nan nan nan 8.3 9.9 9.9 9.9 nan nan nan nan nan nan nan nan nan nan nan nan nan nan nan nan nan nan nan nan nan nan nan nan nan nan nan nan nan nan
nan 5.2 6.0 5.0 nan 5.0 7.7 nan nan 5.0 9.7 9.8 9.8 9.5 nan nan nan nan nan nan nan nan nan nan nan nan nan nan nan nan nan nan nan nan nan nan nan nan nan 15.0 8.1 nan nan nan
4.3 8.7 7.5 nan nan nan nan nan nan 8.2 6.4 10.1 7.7 6.7 nan 5.6 6.3 6.7 nan nan nan nan nan nan nan nan nan nan nan nan nan nan nan nan nan nan nan 15.0 8.4 8.3 8.2 8.1 8.0 8.0
5.9 8.6 6.9 9.9 nan nan 8.3 nan nan nan 6.5 6.0 nan nan nan nan nan nan nan nan nan nan nan nan nan nan nan nan nan nan nan nan 9.2 10.0 12.1 10.6 9.3 9.0 8.9 8.8 8.6 8.5 8.2 8.1
7.9 9.0 10.0 10.0 9.0 9.7 10.1 9.9 nan nan nan nan 10.0 nan nan nan nan nan nan nan 8.5 nan nan nan nan nan nan nan nan 10.0 nan 10.0 10.0 10.2 10.0 9.9 9.6 9.4 9.2 9.0 8.8 8.5 8.2 8.0
8.2 9.6 9.5 10.0 9.9 11.3 9.3 nan nan nan nan nan nan nan nan nan nan nan nan 8.4 nan nan nan nan nan nan nan nan 10.0 nan 10.0 10.1 10.1 10.1 10.0 10.1 10.0 10.1 9.4 9.1 8.9 8.7 8.6 8.5
5.0 7.6 9.8 10.2 10.0 8.1 5.0 nan nan nan nan nan nan nan nan nan nan nan nan nan nan nan nan nan nan nan 10.0 11.3 11.7 10.3 10.3 10.2 10.3 10.3 10.4 10.1 10.3 10.6 10.1 9.8 9.8 10.0 9.2 8.5
6.9 6.1 7.0 10.2 10.5 10.5 5.5 5.0 nan nan 9.9 nan nan nan nan nan 10.0 7.9 nan nan nan nan nan nan nan nan 11.7 10.3 10.4 10.5 10.6 10.6 11.0 11.1 11.3 11.1 11.2 10.8 10.8 9.9 9.9 9.3 8.9 9.0
10.1 10.0 10.3 9.6 10.1 9.6 5.0 5.0 nan 9.9 nan nan nan nan nan 9.8 7.8 nan nan nan nan nan nan nan nan 10.2 10.5 10.9 11.1 10.7 10.5 11.2 11.2 11.4 11.8 11.6 11.2 10.9 11.0 10.4 9.5 9.7 9.1 8.8
11.2 10.6 10.0 10.0 10.6 10.3 2.6 nan nan nan nan nan 8.2 8.4 9.9 nan nan nan nan nan nan nan nan 10.0 10.4 10.2 10.5 10.5 12.0 11.3 10.7 10.8 11.5 11.7 12.4 11.0 10.6 10.8 10.2 9.6 9.1 8.8 8.8 8.6
10.3 9.0 9.6 8.4 9.4 nan nan nan nan nan nan 7.9 8.7 9.2 5.0 6.7 nan 10.0 nan nan nan 10.0 10.0 10.1 10.3 10.2 10.3 10.3 11.6 13.0 11.2 11.6 11.8 10.4 10.2 10.4 10.2 10.2 10.2 9.7 9.4 8.5 8.2 8.0
7.7 nan 7.8 9.0 nan nan 6.7 5.0 4.4 5.4 7.5 8.2 9.1 9.8 6.3 7.0 9.9 10.0 10.0 10.0 10.1 10.0 10.1 10.3 10.3 10.4 11.0 10.9 10.9 11.4 12.0 11.7 10.1 10.3 10.4 10.4 10.3 9.6 9.4 9.2 8.9 8.3 8.0 7.8
5.0 nan 8.0 9.0 nan nan 5.0 5.0 4.3 5.4 9.1 9.9 9.8 9.6 6.4 9.8 9.9 10.0 10.0 10.0 10.1 10.1 10.0 10.1 10.2 10.5 11.2 11.7 11.5 11.7 12.4 11.4 10.3 10.3 10.5 10.2 10.0 9.8 9.5 9.5 11.7 10.9 9.7 9.5
2.5 nan 8.8 9.4 nan 5.0 5.0 nan 4.5 5.3 9.1 9.3 9.4 9.9 9.7 9.7 9.9 9.9 10.0 10.0 10.0 10.0 10.1 10.0 10.3 11.1 12.6 12.0 11.9 12.2 11.6 11.4 11.2 10.8 10.3 10.5 10.5 10.1 9.6 9.6 9.6 nan nan nan